Location: Aghione
(42.1122°N, 9.4005°E)
Time: 07:10:16
(UTC+00:00)

Daily predictions for brighter satellites

Satellite Brightness Start Highest point End
(mag) Time Altitude Azimuth Time Altitude Azimuth Time Altitude Azimuth
Cosmos 2227 4.2 17:44:46 10° SSW 17:50:30 81° ESE 17:56:15 10° NNE
HJ-1C 4.4 17:48:01 10° SE 17:50:47 26° ENE 17:53:34 10° NNE
Cosmos 1975 Rocket 3.5 17:48:55 10° N 17:52:58 38° ENE 17:56:59 10° SE
Cosmos 1898 Rocket 3.5 17:48:12 10° SSW 17:53:21 84° ESE 17:58:34 10° NNE
Milstar 3 Cent rocket 4.4 17:52:18 10° S 17:54:45 12° S 17:56:53 10° SSE
Cosmos 1943 3.3 17:50:53 10° NNW 17:56:29 60° ENE 18:02:04 10° SE
COSMO-SKYMED 1 3.5 17:52:58 10° N 17:57:13 54° WNW 18:01:26 10° SSW
USA 234 4.3 17:55:20 10° ENE 18:00:15 22° ESE 18:05:09 10° S
Cosmos 1867 4.2 17:58:01 10° NNW 18:03:09 39° NE 18:08:14 10° ESE
Cosmos 858 Rocket 4.4 18:00:21 10° SSW 18:05:34 78° ESE 18:10:48 10° NNE
CSL-04 Debris 4.2 18:01:14 10° SSE 18:06:33 65° ENE 18:11:54 10° N
Lacrosse 5 rocket 3.8 18:03:51 10° WNW 18:06:55 19° NNW 18:10:05 10° NNE
Cosmos 372 Rocket 4.4 18:03:08 10° S 18:07:57 38° ESE 18:12:47 10° NE
Cosmos 1939 Rocket 4.3 18:05:09 10° S 18:09:04 42° W 18:13:01 10° NNW
CZ-2D R/B 4.1 18:05:18 10° S 18:09:06 54° W 18:12:56 10° NNW
Sich 1 Rocket 3.9 18:05:32 10° SSE 18:09:49 47° E 18:14:10 10° NNE
Cosmos 807 4.2 18:11:15 10° S 18:14:18 82° E 18:17:52 10° N
CSL-04 Rocket 3.6 18:09:37 10° SSE 18:14:59 73° ENE 18:20:28 10° N
Meteor 1-21 4.2 18:09:34 10° N 18:15:12 77° E 18:20:47 10° SSE
MOS 1 Rocket 3.3 18:11:35 10° NNE 18:15:53 48° E 18:20:02 10° S
Cosmos 1603 3.8 18:11:21 10° NNW 18:17:02 81° WSW 18:22:38 10° SSE
SJ 16-02 3.7 18:14:10 10° WSW 18:17:56 27° WNW 18:21:41 10° N
Cosmos 1937 Rocket 3.7 18:16:14 10° SSW 18:21:29 76° WNW 18:26:44 10° NNE
Okean 2 Rocket 3.3 18:24:04 10° SSE 18:28:22 47° E 18:32:40 10° NNE
Abrixas rocket 3.8 18:27:22 10° WNW 18:29:43 23° N 18:31:43 12° NE
Cosmos 1464 Rocket 4.0 18:23:56 10° S 18:29:53 57° E 18:35:54 10° NNE
NOSS 2-2 (E) 3.5 18:27:28 10° SW 18:30:54 64° NW 18:34:43 10° NNE
SL-08 RB Rocket 4.1 18:26:34 10° SE 18:30:54 43° ENE 18:35:13 10° N
ATLAS 2AS CENTAUR R/B 4.0 18:30:47 10° SSE 18:36:12 21° ESE 18:41:39 10° ENE
Cosmos 1300 Rocket 3.6 18:32:41 10° S 18:36:58 56° E 18:41:19 10° NNE
CZ-2C R/B 2.3 18:35:58 10° SW 18:38:56 25° S 18:39:59 21° SSE
NOSS 2-2 (D) 3.3 18:36:06 10° SW 18:39:35 68° NW 18:43:21 10° NNE
USA 102 4.1 18:38:58 20° SE 18:43:11 48° ENE 18:45:15 18° N
YAOGAN 1 4.3 18:39:54 10° SSW 18:43:52 35° W 18:47:51 10° NNW
CENTAUR R/B 3.8 18:39:40 10° NNW 18:47:03 39° NE 18:51:58 22° E
H-2A R/B 2.3 18:42:59 10° S 18:47:53 68° WSW 18:52:56 10° NNW
Cosmos 1174 4.5 18:43:17 10° SSW 18:47:58 62° ESE 18:53:54 10° NE
CZ-4 R/B 3.9 18:45:51 10° SSW 18:49:20 25° W 18:52:49 10° NW
Cosmos 1674 3.7 18:49:09 10° NNE 18:52:10 28° ENE 18:52:10 28° ENE
Exosat Rocket 4.0 18:47:28 10° S 18:52:54 39° ESE 18:57:34 10° NE
ATLAS 3B R/B 4.4 18:48:51 10° NNW 18:53:18 18° NNE 18:56:56 12° ENE
ISS -3.1 18:51:02 10° WSW 18:54:21 55° NNW 18:56:09 24° NE
Cosmos 1048 Rocket 4.3 18:50:46 10° N 18:55:55 48° ENE 18:58:02 31° ESE
Cosmos 1536 Rocket 3.6 18:52:45 10° N 18:57:08 55° E 18:58:58 32° SE
Cosmos 1891 Rocket 4.5 18:51:12 10° S 18:57:23 82° W 19:03:28 10° N
USA 238 DEB 4.1 18:51:36 10° NNW 18:58:40 54° NE 19:02:30 28° ESE
USA 238 4.1 18:51:42 10° NNW 18:58:46 53° NE 19:02:35 29° ESE
In-Cosmos 22 4.0 18:54:27 10° N 18:59:46 80° E 19:04:25 14° SSE
ARGOS 3.4 18:56:04 10° S 19:01:23 70° WSW 19:06:46 10° NNW
Cosmos 1025 Rocket 3.0 19:02:43 10° N 19:07:07 85° W 19:10:02 21° S
CZ-2C R/B 2.6 19:01:38 10° NNE 19:07:12 75° ESE 19:12:48 10° S
Cosmos 2151 Rocket 3.5 19:05:20 10° S 19:09:47 86° W 19:14:17 10° N
Cosmos 1707 3.6 19:06:35 10° NNW 19:10:17 47° W 19:13:52 11° SSW
USA 186 2.2 19:13:02 47° SW 19:13:36 56° W 19:16:46 10° NNW
KORONAS-FOTON 4.3 19:10:21 10° N 19:13:36 46° NE 19:13:36 46° NE
Ariane Rocket 3.0 19:12:56 21° S 19:16:20 82° WSW 19:21:27 10° NNW
SJ-6B 2.6 19:16:15 63° S 19:16:48 87° WSW 19:20:34 10° NNW
Cosmos 1844 3.6 19:13:29 10° SSW 19:19:08 68° ESE 19:24:46 10° NNE
Nadezhda 4 Rocket 3.9 19:18:38 10° N 19:24:46 84° W 19:29:17 19° S
MOS 1 4.3 19:21:25 24° S 19:24:59 83° WSW 19:30:44 10° NNW
Cosmos 494 Rocket 4.1 19:20:28 10° NNW 19:25:39 55° ENE 19:26:06 54° E
NOSS 3-2 (A) 4.0 19:18:51 10° NW 19:26:31 81° NE 19:30:19 37° SE
Cosmos 2034 Rocket 4.2 19:21:09 10° SSW 19:27:30 73° W 19:33:52 10° N
Cosmos 1844 Rocket 2.6 19:22:19 10° SSW 19:27:52 83° WNW 19:33:29 10° NNE
SPOT 3 Rocket 3.4 19:32:57 63° E 19:33:17 65° ENE 19:38:24 10° N
Resurs 01 Rocket 2.5 19:42:54 40° NNE 19:42:54 40° NNE 19:46:00 10° N
USA 234 3.1 19:37:14 10° NE 19:43:49 85° SE 19:50:23 10° SW
Lacrosse 5 rocket 4.2 19:46:03 10° NNW 19:47:41 12° N 19:49:19 10° NNE
OBJECT-B 3.2 19:52:33 21° NNW 19:52:33 21° NNW 19:53:50 10° NNW
Cosmos 1833 Rocket 4.1 19:47:42 10° N 19:51:25 25° NE 19:51:25 25° NE
ARIANE 5 R/B 4.4 20:01:02 23° N 20:01:02 23° N 20:02:49 10° N
Cosmos 1634 Rocket 3.8 19:59:03 64° S 20:00:05 89° WNW 20:06:19 10° N
NOSS 3-2 (C) 4.0 19:53:39 10° NW 20:01:20 85° NE 20:03:03 61° SE
BREEZE-M TANK 3.3 19:58:28 10° W 20:04:38 57° NW 20:04:38 57° NW
Cosmos 2285 Rocket 4.4 20:01:32 10° SSW 20:07:45 61° WNW 20:14:01 10° NNE
Okean 1 Rocket 4.2 20:08:18 43° WNW 20:08:18 43° WNW 20:12:19 10° N
Meteor 2-5 Rocket 4.4 20:19:58 10° NNW 20:25:25 51° W 20:25:27 51° W
ATLAS 2AS CENTAUR R/B 2.9 20:18:19 10° SSW 20:26:16 90° NW 20:34:15 10° NE
Cosmos 2026 Rocket 4.4 20:24:14 10° NNW 20:30:27 57° W 20:30:53 55° WSW
Cosmos 2082 Rocket 3.9 20:29:34 10° N 20:32:16 24° NNE 20:32:16 24° NNE
CENTAUR R/B 3.3 20:30:12 10° NW 20:38:24 68° WSW 20:39:10 65° SSW
COSMOS 2406 4.3 20:39:41 10° NNW 20:43:10 39° NNW 20:43:10 39° NNW
ATLAS 3B R/B 3.3 20:38:44 10° NNW 20:44:10 49° N 20:44:10 49° N
Terra 4.5 21:02:36 14° N 21:02:36 14° N 21:03:14 10° N
USA 234 4.4 21:24:44 32° N 21:26:25 37° NNW 21:32:18 10° W
